Dewpoint
66 66 66 66 65 65 64 64 63 64 63 63 64 62 61 61 58 59 61 62 62 62 60 60 60 61 61 61 60 59 58 57 56 58 58 57 58 59 58 57 57 56 55
66 65 65 65 66 65 65 64 63 63 62 63 63 63 59 60 59 58 60 61 61 62 61 60 61 61 60 60 59 58 57 57 57 57 57 58 59 58 58 56 55 55 54
67 65 65 65 66 65 65 64 63 63 62 63 62 62 58 55 56 57 57 59 60 60 61 62 62 62 60 59 58 58 57 58 57 56 56 57 57 57 57 56 55 54 54
66 66 65 65 65 65 64 63 62 62 62 62 62 62 56 55 53 55 56 56 57 57 60 61 62 62 61 60 59 57 56 57 56 56 55 57 57 57 56 56 55 55 54
66 65 64 64 64 64 64 63 62 60 60 61 61 61 55 53 54 53 55 55 56 57 58 60 60 60 61 61 58 56 57 57 56 56 56 57 56 57 57 56 55 55 54
65 65 64 64 64 64 63 63 61 61 61 60 61 60 52 53 53 54 54 56 56 56 56 58 59 59 59 61 59 57 57 57 56 57 57 57 57 57 56 56 56 55 55
64 64 64 63 63 62 62 62 61 60 60 60 59 57 57 57 56 55 55 55 55 56 57 57 57 57 58 59 60 58 57 59 58 57 57 57 58 58 58 56 56 56 56
64 64 63 63 63 62 61 61 60 59 59 60 57 53 52 54 55 55 55 55 55 53 56 56 56 56 56 57 57 59 57 59 58 58 59 59 59 59 58 56 56 56 56
63 63 63 62 61 61 60 60 60 58 57 59 59 53 52 50 53 55 55 55 54 55 52 54 54 54 54 55 55 56 57 57 59 61 60 59 59 59 59 58 57 56 56
63 63 62 62 61 60 60 60 61 59 58 57 58 55 53 53 50 51 55 55 55 55 54 53 53 53 54 55 55 54 54 53 56 59 61 61 60 60 60 59 59 59 58
61 60 60 61 60 60 60 60 60 60 59 57 55 55 54 54 53 51 51 53 54 55 53 54 54 53 53 55 56 55 53 52 53 56 59 61 62 61 60 60 60 60 60
60 59 59 60 60 60 59 59 59 59 59 59 57 56 54 53 52 52 51 52 51 52 54 53 54 55 54 55 55 53 51 51 51 53 56 58 59 61 62 62 61 61 61
58 58 59 59 59 59 59 60 60 60 59 59 58 56 56 55 55 53 51 52 52 53 54 55 54 54 54 56 55 52 52 49 50 52 53 55 56 57 59 60 61 62 62
58 58 59 59 59 59 60 60 60 60 59 59 58 57 57 56 56 54 53 49 48 49 53 53 55 55 55 55 55 52 54 49 48 49 51 53 53 54 55 56 57 58 59
59 58 58 58 58 59 59 58 57 57 58 58 58 57 57 57 56 55 55 55 51 48 48 53 54 55 55 56 55 55 55 52 49 48 48 50 51 52 53 54 54 55 56
58 58 57 57 57 57 57 58 57 57 57 57 58 58 57 55 55 55 55 56 55 53 48 49 52 54 56 56 56 56 56 53 49 47 47 47 48 50 51 51 52 53 53
59 58 57 57 56 57 57 57 57 57 56 56 56 56 56 55 53 54 55 55 54 54 52 51 51 53 54 54 54 54 56 56 56 48 47 47 47 47 48 48 49 50 51
58 57 58 56 56 56 56 56 55 56 55 55 56 55 55 54 54 55 55 55 54 53 52 50 52 52 51 51 52 53 52 52 53 51 48 47 47 46 46 46 46 47 47
58 58 57 57 56 55 55 55 55 54 54 54 54 54 53 52 51 51 52 53 54 54 53 52 51 51 52 51 51 51 52 52 51 49 46 46 46 46 46 46 46 46 45
58 58 58 57 56 55 55 55 55 54 53 53 53 53 53 53 52 51 51 51 51 53 52 52 52 51 51 51 52 51 51 53 54 54 51 48 47 45 44 43 42 42 42
57 58 58 57 55 53 43 49 54 54 54 53 54 54 53 52 49 51 51 52 52 50 51 51 51 51 52 53 53 55 55 55 55 57 57 58 52 43 39 39 39 40 41
49 47 47 43 40 36 36 37 41 54 54 54 55 55 55 49 48 43 42 42 47 51 51 52 52 54 54 54 52 52 52 52 51 45 48 50 41 36 35 36 37 37 37
42 40 38 37 35 35 35 37 36 49 45 43 42 44 45 40 38 41 42 41 37 37 36 47 50 48 43 36 38 44 48 47 46 40 43 43 36 32 33 34 35 35 35
37 36 35 34 34 33 35 37 39 39 36 34 35 35 35 34 34 36 40 38 34 32 33 33 33 32 31 31 33 37 39 40 41 32 32 35 33 30 30 32 33 34 34
33 33 33 32 32 32 35 37 36 35 33 32 32 33 32 32 33 36 42 35 31 30 32 32 31 30 30 30 30 36 32 34 34 30 29 30 32 29 29 29 31 32 32
33 32 31 31 32 31 34 36 35 34 32 31 31 31 31 31 32 34 34 32 28 28 28 28 28 28 29 29 29 29 29 30 29 29 28 29 30 30 26 29 30 31 32
Lifted_Index
-3 -3 -3 -2 -2 -2 -1 -1 -1 0 1 1 1 1 1 1 1 1 1 1 2 2 3 4 4 3 3 3 4 5 5 6 6 6 6 6 6 6 6 7 7 7 7
-3 -3 -3 -2 -2 -2 -1 -1 -1 0 1 1 1 1 1 1 2 2 2 2 2 3 3 3 3 3 3 3 4 5 6 6 6 6 6 6 6 6 7 7 7 7 7
-3 -3 -3 -3 -2 -2 -1 -1 -0 0 1 1 1 1 2 2 2 2 2 3 3 3 3 3 3 3 3 4 4 5 6 6 6 6 6 6 6 6 7 7 7 7 7
-3 -3 -3 -2 -2 -2 -1 -1 -0 0 1 1 1 1 2 3 3 3 3 3 3 3 3 3 3 3 3 4 4 5 5 6 6 6 6 6 6 6 7 7 7 7 8
-2 -2 -2 -2 -2 -1 -1 -1 -0 1 1 1 1 2 2 3 4 4 3 3 3 4 3 3 3 3 3 4 4 5 5 5 6 6 6 6 6 6 6 7 7 7 7
-2 -2 -2 -2 -1 -1 -1 -1 -0 0 1 1 1 2 3 4 4 4 3 3 3 4 4 3 4 4 4 4 4 5 5 5 5 5 6 6 6 6 6 6 7 7 7
-2 -2 -2 -1 -1 -1 -1 -1 -0 0 1 1 2 2 3 3 3 4 3 3 3 3 4 4 4 4 4 4 4 5 5 5 5 5 5 5 5 6 6 6 7 7 7
-2 -2 -1 -1 -1 -0 -0 0 0 1 1 1 2 3 3 3 3 3 4 4 3 4 4 4 4 4 4 5 5 5 5 4 4 4 4 4 5 5 5 6 6 7 7
-2 -1 -1 -0 0 0 1 1 1 1 1 2 2 3 3 3 3 3 3 4 4 4 4 4 4 4 4 5 5 5 5 5 4 4 3 3 4 4 4 5 5 6 6
-1 -1 -0 0 1 1 1 1 1 1 2 2 2 3 3 4 4 3 3 3 4 4 4 4 4 4 4 4 4 4 4 5 5 4 3 3 3 3 3 4 4 4 4
-0 0 0 1 1 1 1 1 1 2 2 2 2 3 3 3 4 3 3 4 4 4 4 4 4 4 4 4 4 4 4 4 5 5 4 3 2 2 2 2 2 3 3
1 1 1 1 2 2 2 2 2 2 2 2 2 3 3 3 3 3 3 3 4 4 4 4 4 4 4 4 4 3 3 4 4 5 4 4 3 2 2 1 1 1 2
1 1 1 2 2 2 2 2 2 2 2 2 2 3 3 3 3 3 3 3 4 4 3 3 4 4 4 4 3 3 3 4 4 4 4 4 4 4 3 2 2 1 1
1 1 1 2 2 2 2 2 2 2 2 2 2 2 3 3 3 3 3 4 4 4 3 3 3 3 3 3 3 3 3 3 4 4 4 4 4 4 4 4 3 2 2
1 1 1 2 2 3 2 2 2 2 2 2 2 2 2 3 3 4 4 4 4 4 3 3 3 2 2 2 2 3 3 3 3 3 4 4 4 4 4 4 4 4 3
1 1 1 1 2 2 2 2 2 2 2 2 2 2 2 3 3 4 4 3 3 3 3 3 3 2 2 2 2 2 2 2 2 2 3 3 4 4 4 4 4 4 4
1 1 1 1 2 2 2 2 2 2 2 2 2 2 2 3 4 4 3 3 3 3 3 3 3 3 2 2 2 3 2 2 2 2 2 3 3 3 4 4 4 5 5
1 1 1 1 1 2 2 2 2 2 2 2 2 2 2 3 3 3 3 3 3 3 3 3 3 3 3 3 3 3 3 3 2 2 2 2 2 3 3 3 4 4 4
0 1 1 1 1 1 1 1 2 2 2 2 2 2 2 2 3 3 3 3 3 3 3 3 3 3 3 3 3 3 3 3 3 2 2 2 2 2 2 3 3 3 3
0 0 1 2 2 1 1 1 1 2 2 2 2 2 2 2 2 3 3 4 4 4 3 3 3 3 3 2 2 2 2 2 2 2 1 1 1 1 2 2 2 2 2
-0 0 1 1 2 2 1 1 1 1 2 2 2 2 2 2 2 3 3 4 4 4 3 3 2 2 2 1 1 1 1 1 1 1 1 1 1 1 1 1 1 1 2
-0 -0 0 1 1 2 2 1 2 2 2 2 2 2 2 2 2 2 2 3 3 3 3 2 2 2 2 2 1 2 2 2 2 2 2 2 2 2 2 2 2 2 2
0 -0 0 0 1 1 1 2 2 2 2 2 2 2 2 2 2 2 2 2 2 2 2 2 2 2 2 2 2 2 2 2 3 3 3 3 3 3 4 5 5 5 5
1 1 1 1 1 2 1 1 2 2 2 2 2 2 2 2 2 1 1 1 1 2 2 3 3 3 4 4 3 3 3 3 3 4 4 4 4 5 7 8 9 10 10
4 4 3 3 3 3 2 2 2 2 2 2 2 2 3 2 2 2 2 2 2 2 3 4 5 5 6 6 6 5 5 4 4 5 6 6 6 7 9 10 12 14 14
6 6 4 4 4 4 3 3 2 2 2 3 3 3 3 3 3 3 2 2 2 3 4 5 6 7 8 9 9 8 6 5 4 5 7 7 7 8 9 12 14 16 17